FENGYUN 1C DEB

Satellite information

Favourite Embed

Satellite Type and Status

DEBRISIN ORBIT

Key statistics

Satellite FENGYUN 1C DEB at a glance.

Uptime

9609

Days in orbit

Revolutions

≈ 14.2

Per day

Orbit

SSO

Sun Synchronous Orbit

Inclination

99.2

Latest

Satellite identification and parameters

Extended collection of information and parameters for FENGYUN 1C DEB.

Object identification

Identified? True

Debris? True

Object name: FENGYUN 1C DEB

International designator: 1999-025CDA

Object number (NORAD): 31692

Object ID (CCSDS): 31692

Country: PEOPLES REPUBLIC OF CHINA (PRC)

Current information (Y/N): Y

RCS size: SMALL

Orbital parameters

Period: 101.65 minutes

Inclination: 99.1713 deg

SMA: 7214.939 km

Apoapsis: 904.156 km

Periapsis: 769.451 km

RAAN: 232.9729 deg

Eccentricy: 0.00933514

Argument of periapsis: 25.7925 deg

Mean anomaly: 334.786 deg

Mean motion: 14.16621334 rev/day

Mean motion (dot): 0.00008327 rev/day2

B* drag term: 0.0040175622 1/REarth

Two-line elements (TLE)

Creation date: Aug. 28, 2025, 2:53 a.m.

Reference frame: TEME

Reference center: EARTH

Epoch: Aug. 27, 2025, 10:39 p.m. UTC

TLE line 0: 0 FENGYUN 1C DEB

TLE line 1: 1 31692U 99025CDA 25239.94419780 .00008327 00000-0 40176-2 0 9999

TLE line 2: 2 31692 99.1713 232.9729 0093351 25.7925 334.7860 14.16621334566962

Live tracking on map

Real-time ground track for satellite FENGYUN 1C DEB.

In-orbit conjunctions

A list of the most updated potential collisions computed for object FENGYUN 1C DEB.

Target Orbit TCA Probability of collision Miss distance Type
METEOR 1-24 LEO 2025-05-13 01:27:13 0.000512839 130.0 (m) PAYLOAD
HEALTHSAT 1 SSO 2025-03-18 21:42:02 0.000772567 187.0 (m) PAYLOAD
PORCUPINE 1 LEO 2025-02-09 02:31:04 0.0001520573 467.0 (m) PAYLOAD
FENGYUN 1C DEB SSO 2024-11-09 07:57:20 0.0002883501 331.0 (m) DEBRIS
IRS 1B SSO 2024-09-02 04:07:24 0.0001005401 520.0 (m) PAYLOAD

Associated space launch

Chinese polar orbiting meteorological satellite

FENGYUN 1C DEB was lifted into orbit during the mission ‘Long March 4B | Feng Yun 1C’, on board a Long March 4B space rocket.

The launch took place on May 10, 1999, 1:33 a.m. from Launch Complex 7.

For more information about the launch, click the button.

Launch to space Long March 4B | Feng Yun 1C
Long March 4B | Feng Yun 1C

Agency: N/A

Status: Launch Successful

Launch date: May 10, 1999, 1:33 a.m. UTC

Rocket: Long March 4B

Launch pad: Launch Complex 7

Location: Taiyuan Satellite Launch Center, People's Republic of China

...

Latest news about this satellite

There are no fresh news available about this satellite. Check back as we update our databases every day.


Newsletter sign-up

Weekly statistics, charts and insights to help you stay on top of the space industry.